EA5CBT-13 Weather Reports


time (UTC)temp
C
wind
direction
speed
KPH
gust
KPH
rain 1hr
cm
rain 24hr
cm
rain mn
cm
humidity
%
barometer
mb
20260508122525 20 42 6.4 9.7 0.00 0.56 0.20 64 1010.8
20260508121518 19 360 3.2 9.7 0.00 0.76 0.20 66 1010.8
20260508120610 18 315 3.2 4.8 0.00 1.14 0.20 67 1010.8
20260508115603 18 340 3.2 4.8 0.00 1.27 0.20 72 1010.7
20260508114554 17 335 1.6 4.8 0.03 1.37 0.20 81 1010.8
20260508113548 16 349 1.6 6.4 0.05 1.75 0.20 84 1010.9
20260508112539 15 328 3.2 6.4 0.13 1.88 0.20 84 1011.0
20260508111531 16 0 0.0 3.2 0.13 1.96 0.20 86 1011.6
20260508110523 16 0.0 1.6 0.18 1.98 0.20 87 1011.6
20260508105516 16 0.0 1.6 0.18 1.98 0.20 86 1011.6
20260508104609 15 0.0 1.6 0.15 1.96 0.18 84 1011.9
20260508103601 15 270 0.0 1.6 0.13 1.96 0.15 83 1012.1
20260508102552 16 270 0.0 3.2 0.05 1.88 0.10 83 1012.2
20260508101544 16 225 0.0 3.2 0.05 1.93 0.10 81 1012.1
20260508100537 16 0.0 1.6 0.00 1.85 0.03 80 1012.1
20260508095530 16 315 1.6 3.2 0.00 1.85 0.03 79 1012.2
20260508094543 16 18 3.2 6.4 0.00 1.85 0.03 78 1012.2
20260508093614 17 279 3.2 6.4 0.03 1.85 0.03 79 1012.1
20260508092626 17 248 6.4 11.3 0.03 1.88 0.03 78 1012.0
20260508091558 17 248 3.2 6.4 0.03 1.88 0.03 76 1012.0
20260508090551 17 0.0 1.6 0.03 1.93 0.03 81 1011.8
20260508085603 16 270 1.6 4.8 0.03 1.93 0.03 81 1011.6
20260508084535 16 225 3.2 6.4 0.03 1.96 0.03 82 1011.5
20260508083528 16 242 1.6 4.8 0.00 1.93 0.00 82 1011.5
20260508082520 16 225 1.6 3.2 0.00 1.93 0.00 81 1011.3
20260508081613 16 0.0 1.6 0.00 1.96 0.00 81 1011.3
20260508080605 15 0.0 1.6 0.00 2.03 0.00 80 1011.5
20260508075557 16 270 1.6 3.2 0.00 2.06 0.00 79 1011.4
20260508074550 16 270 1.6 3.2 0.00 2.11 0.00 77 1011.3
20260508073542 16 315 0.0 3.2 0.00 2.11 0.00 76 1010.6
20260508072534 16 315 1.6 3.2 0.00 2.11 0.00 75 1010.5
20260508071526 16 315 1.6 6.4 0.00 2.11 0.00 74 1010.3
20260508070518 17 315 0.0 3.2 0.00 2.11 0.00 74 1010.3
20260508065611 17 0.0 1.6 0.00 2.11 0.00 76 1010.3
20260508064603 16 315 0.0 3.2 0.00 2.11 0.00 76 1010.5
20260508063616 16 270 0.0 3.2 0.00 2.11 0.00 80 1010.4
20260508062610 16 0.0 3.2 0.00 2.11 0.00 86 1010.2
20260508061541 14 0.0 1.6 0.00 2.11 0.00 90 1010.1
20260508060533 13 0.0 1.6 0.00 2.11 0.00 87 1010.0
20260508055525 13 270 0.0 3.2 0.00 2.11 0.00 87 1009.9
20260508054558 13 0.0 1.6 0.00 2.11 0.00 87 1009.8
20260508053612 13 0.0 1.6 0.00 2.11 0.00 88 1009.6
20260508052603 12 0.0 0.0 0.00 2.11 0.00 88 1009.6
20260508051555 12 324 1.6 3.2 0.00 2.11 0.00 89 1009.6
20260508050549 12 0.0 3.2 0.00 2.11 0.00 89 1009.5
20260508045541 12 315 0.0 3.2 0.00 2.11 0.00 90 1009.3
20260508044532 12 332 0.0 3.2 0.00 2.11 0.00 90 1009.2
20260508043526 12 338 0.0 3.2 0.00 2.11 0.00 90 1009.1
20260508042518 12 315 0.0 3.2 0.00 2.11 0.00 90 1009.2
20260508041610 12 315 0.0 3.2 0.00 2.11 0.00 89 1009.3
20260508040602 12 315 1.6 3.2 0.00 2.11 0.00 90 1009.3
20260508035554 12 0.0 3.2 0.00 2.11 0.00 90 1009.4
20260508034546 12 0.0 0.0 0.00 2.11 0.00 90 1009.0
20260508033539 12 0.0 1.6 0.00 2.11 0.00 90 1009.0
20260508032531 12 0.0 1.6 0.00 2.11 0.00 90 1009.0
20260508031524 12 315 0.0 3.2 0.00 2.11 0.00 90 1009.2
20260508030518 12 315 0.0 3.2 0.00 2.11 0.00 90 1009.5
20260508025650 12 315 0.0 3.2 0.00 2.11 0.00 90 1009.7
20260508024602 12 0.0 1.6 0.00 2.11 0.00 90 1009.8
20260508022548 12 315 0.0 3.2 0.00 2.11 0.00 91 1009.5
20260508021539 12 0.0 0.0 0.00 2.11 0.00 91 1009.6
20260508020531 12 0.0 0.0 0.00 2.11 0.00 91 1009.8
20260508015524 12 0.0 0.0 0.00 2.11 0.00 92 1009.8
20260508014516 13 0.0 1.6 0.00 2.11 0.00 92 1009.8
20260508013610 13 0.0 0.0 0.00 2.11 0.00 92 1009.8
20260508012602 13 0 0.0 3.2 0.00 2.11 0.00 93 1009.9
20260508011554 13 315 0.0 3.2 0.00 2.11 0.00 93 1009.9
20260508010548 13 318 1.6 3.2 0.00 2.11 0.00 93 1010.1
20260508005539 13 315 1.6 4.8 0.00 2.11 0.00 93 1010.3
20260508004531 13 330 1.6 4.8 0.00 2.11 0.00 93 1010.4
20260508003525 13 330 0.0 3.2 0.00 2.11 0.00 93 1010.6
20260508002516 13 338 1.6 3.2 0.00 2.11 0.00 93 1010.9
20260508001609 13 339 0.0 3.2 0.00 2.11 0.00 93 1010.9
20260508000623 13 0 3.2 3.2 0.00 2.11 0.00 93 1010.9
20260507235555 13 330 0.0 3.2 0.00 2.11 0.00 93 1011.0
20260507234547 13 0.0 1.6 0.00 2.11 0.00 93 1011.0
20260507233539 13 0.0 1.6 0.00 2.11 0.00 92 1011.2
20260507232532 13 339 1.6 4.8 0.00 2.11 0.00 92 1011.1
20260507231524 13 0.0 1.6 0.00 2.11 0.00 92 1011.2
20260507230517 13 0.0 1.6 0.00 2.11 0.00 92 1011.2
20260507225610 13 0.0 0.0 0.00 2.11 0.00 92 1011.4
20260507224604 13 0.0 0.0 0.00 2.11 0.00 92 1011.4
20260507223554 13 315 1.6 4.8 0.00 2.11 0.00 92 1011.3
20260507222546 13 313 1.6 6.4 0.00 2.11 0.00 92 1011.3
20260507221538 13 333 1.6 6.4 0.00 2.11 0.00 92 1011.2
20260507220532 13 0.0 0.0 0.00 2.11 0.00 92 1011.1
20260507215519 13 315 1.6 3.2 0.00 2.11 2.11 92 1011.0
20260507214652 13 326 0.0 3.2 0.00 2.11 2.11 92 1011.0
20260507213604 13 315 0.0 3.2 0.00 2.11 2.11 91 1010.9
20260507212556 13 0.0 3.2 0.00 2.11 2.11 91 1010.9
20260507211549 13 0 0.0 3.2 0.00 2.11 2.11 91 1010.7
20260507210541 13 319 1.6 4.8 0.00 2.11 2.11 91 1010.7
20260507205552 14 337 1.6 4.8 0.00 2.11 2.11 91 1010.7
20260507204544 14 14 1.6 4.8 0.00 2.11 2.11 91 1010.5
20260507203657 14 0.0 1.6 0.00 2.11 2.11 91 1010.6
20260507202609 14 45 4.8 9.7 0.00 2.11 2.11 91 1010.6
20260507201621 14 319 1.6 3.2 0.00 2.11 2.11 91 1010.4
20260507200553 14 315 1.6 3.2 0.00 2.11 2.11 91 1010.3
20260507195545 15 0.0 1.6 0.00 2.11 2.11 91 1010.2
20260507194537 15 40 3.2 8.0 0.00 2.11 2.11 91 1010.1
20260507193550 15 37 6.4 9.7 0.00 2.11 2.11 91 1010.1
20260507192522 15 41 1.6 6.4 0.00 2.11 2.11 90 1009.8
20260507191614 15 12 3.2 6.4 0.00 2.11 2.11 90 1009.6
20260507190606 15 350 4.8 6.4 0.00 2.11 2.11 91 1009.4
20260507185559 15 47 3.2 11.3 0.00 2.11 2.11 91 1009.3
20260507184549 15 25 3.2 9.7 0.00 2.11 2.11 92 1009.2
20260507183542 16 21 4.8 12.9 0.03 2.11 2.11 92 1008.9
20260507182534 16 25 4.8 11.3 0.03 2.11 2.11 92 1008.6
20260507181527 16 46 1.6 6.4 0.03 2.11 2.11 91 1008.7
20260507180538 16 348 6.4 8.0 0.03 2.11 2.11 91 1008.5
20260507175611 16 304 3.2 6.4 0.03 2.11 2.11 91 1008.4
20260507174603 16 359 3.2 6.4 0.10 2.11 2.11 91 1008.5
20260507173555 16 359 3.2 8.0 0.13 2.06 2.06 90 1008.6
20260507172548 16 328 3.2 4.8 0.15 2.06 2.06 90 1008.4
20260507171540 16 359 3.2 9.7 0.15 2.06 2.06 88 1008.5
20260507170531 16 45 3.2 3.2 0.15 2.06 2.06 85 1008.5
20260507165543 16 360 1.6 3.2 0.15 2.06 2.06 83 1008.5
20260507164537 16 351 3.2 4.8 0.10 2.01 2.01 80 1008.4
20260507163609 17 15 1.6 6.4 0.03 1.96 1.96 77 1008.2
20260507162601 18 22 8.0 14.5 0.00 1.93 1.93 79 1008.1
20260507161553 18 19 1.6 6.4 0.00 1.93 1.93 78 1008.0
20260507160546 18 0.0 1.6 0.00 1.93 1.93 76 1007.9
20260507155537 18 38 3.2 4.8 0.00 1.93 1.93 77 1007.8
20260507154529 18 45 3.2 6.4 0.00 1.93 1.93 77 1007.7
20260507153522 18 41 4.8 8.0 0.00 1.93 1.93 78 1008.0
20260507152614 18 353 3.2 6.4 0.00 1.93 1.93 78 1007.9
20260507151606 18 53 6.4 9.7 0.00 1.93 1.93 77 1007.9
20260507150558 18 315 4.8 8.0 0.00 1.93 1.93 76 1007.9
20260507145551 18 69 4.8 6.4 0.00 1.93 1.93 76 1007.9
20260507144542 18 29 4.8 9.7 0.00 1.93 1.93 78 1008.0
20260507143534 17 21 3.2 6.4 0.00 1.93 1.93 80 1008.0
20260507142527 17 2 3.2 4.8 0.03 1.93 1.93 84 1007.9
20260507141519 17 26 1.6 6.4 0.03 1.93 1.93 88 1007.9
20260507140611 16 0 3.2 6.4 0.05 1.93 1.93 88 1007.9
20260507135605 16 307 3.2 6.4 0.05 1.93 1.93 90 1007.9
20260507134556 16 344 6.4 11.3 0.10 1.93 1.93 91 1007.9
20260507133548 16 330 3.2 6.4 0.15 1.93 1.93 92 1008.4
20260507132541 15 357 1.6 4.8 0.15 1.88 1.88 92 1008.6
20260507131532 15 21 8.0 16.1 0.33 1.88 1.88 94 1008.8
20260507130545 16 45 1.6 3.2 0.69 1.85 1.85 96 1009.0
20260507125517 16 0.0 1.6 0.81 1.85 1.85 96 1008.7
20260507124609 15 326 1.6 6.4 0.89 1.83 1.83 95 1008.8
20260507123602 15 180 0.0 3.2 1.19 1.78 1.78 94 1009.1